Flag for Romania Weather past 2 weeks in Sibiu, Romania

Now
34 °F

Scattered clouds.


Feels Like: 30 °F
Forecast: 26 / 41 °F
Wind: 5 mph from North

Location: Sibiu Airport

Current Time: Feb 1, 2015 at 1:09:03 PM

Latest Report: Feb 1, 2015 at 1:00 PM


Visibility: N/A

Pressure: 29.18 "Hg

Humidity: 81%

Dew point: 28 °F

Location of SibiuLocation

Historic Weather in Sibiu — Graph

°F

Sibiu temperature yesterday

Maximum temperature yesterday: 46 °F (at 12:00 AM)
Minimum temperature yesterday: 28 °F (at 8:30 PM)
Average temperature yesterday: 39 °F

Past Weeks' High & Low Weather Summary

 TemperatureHumidityPressure
High57 °F (Jan 23, 1:00 PM)100% (Jan 19, 9:00 AM)30.15 "Hg (Jan 19, 9:00 AM)
Low27 °F (Feb 1, 12:00 AM)41% (Jan 23, 1:30 PM)28.91 "Hg (Jan 31, 1:00 AM)
Average39 °F83%29.80 "Hg
* Reported Jan 17 12:00 Noon — Feb 1 12:00 Noon, Sibiu, Weather by CustomWeather, © 2014

Note: Actual official high and low records may vary slightly from our data, if they occured in-between our weather recording intervals... More about our weather records

Advertising

Sibiu weather history for previous 24 hours

 ConditionsComfort  
Time TempWeatherWind HumidityBarometerVisibility
12:00 PM
Feb 1
34 °FScattered clouds.No wind70%29.21 "HgN/A
11:30 AM32 °FScattered clouds.2 mph80%29.24 "HgN/A
11:00 AM32 °FScattered clouds.5 mph80%29.24 "HgN/A
10:30 AM30 °FPassing clouds.2 mph86%29.24 "HgN/A
10:00 AM30 °FSunny.2 mph86%29.24 "Hg10 mi
9:30 AM30 °FSunny.2 mph86%29.24 "Hg10 mi
9:00 AM28 °FSunny.2 mph93%29.24 "Hg10 mi
8:30 AM28 °FSunny.2 mph93%29.24 "Hg10 mi
8:00 AM28 °FSunny.2 mph86%29.24 "Hg10 mi
7:30 AM28 °FClear.2 mph93%29.27 "Hg10 mi
7:00 AM27 °FClear.5 mph93%29.27 "Hg10 mi
6:30 AM28 °FClear.2 mph86%29.27 "Hg10 mi
6:00 AM28 °FClear.2 mph86%29.27 "Hg10 mi
5:30 AM28 °FClear.2 mph86%29.27 "Hg10 mi
4:00 AM28 °FClear.5 mph86%29.30 "Hg10 mi
3:00 AM28 °FClear.5 mph86%29.30 "Hg10 mi
2:00 AM28 °FClear.2 mph86%29.36 "Hg10 mi
1:00 AM27 °FClear.No wind93%29.36 "Hg10 mi
12:00 AM27 °FClear.2 mph93%29.36 "Hg10 mi
11:00 PM
Jan 31
28 °FClear.2 mph86%29.36 "Hg10 mi
10:00 PM28 °FClear.No wind86%29.36 "Hg10 mi
9:00 PM28 °FClear.No wind80%29.36 "Hg10 mi
8:30 PM28 °FClear.2 mph86%29.33 "Hg10 mi
8:00 PM32 °FClear.2 mph75%29.33 "Hg10 mi
7:30 PM32 °FClear.2 mph80%29.33 "Hg10 mi
7:00 PM34 °FPassing clouds.5 mph75%29.30 "HgN/A
6:30 PM34 °FClear.7 mph75%29.30 "Hg10 mi
6:00 PM36 °FClear.2 mph70%29.30 "Hg10 mi
5:30 PM37 °FPassing clouds.7 mph65%29.27 "HgN/A
5:00 PM37 °FSunny.12 mph65%29.24 "Hg10 mi
4:30 PM39 °FSunny.16 mph56%29.24 "Hg10 mi
4:00 PM41 °FPassing clouds.16 mph57%29.24 "HgN/A
3:30 PM41 °FScattered clouds.20 mph53%29.21 "HgN/A
3:00 PM41 °FScattered clouds.22 mph53%29.21 "HgN/A
2:30 PM41 °FScattered clouds.22 mph57%29.21 "HgN/A
2:00 PM45 °FScattered clouds.22 mph46%29.18 "HgN/A
1:30 PM45 °FScattered clouds.20 mph46%29.18 "HgN/A
1:00 PM43 °FScattered clouds.7 mph57%29.15 "HgN/A
Weather by CustomWeather, © 2014

See weather overviewHow to use our weather pages